Orbital Elements at Epoch 2459200.5 (2020-Dec-17.0) TDB
Reference: JPL 22 (heliocentric ecliptic J2000)
Element | Value | Uncertainty (1-sigma) | Units |
e | .138411527850327 | 5.5005e-08 | |
a | 2.402802881326217 | 9.2592e-09 | au |
q | 2.070227263398687 | 1.3028e-07 | au |
i | 6.881090075819101 | 4.3871e-06 | deg |
node | 77.05593661922391 | 3.8504e-05 | deg |
peri | 329.3543562554814 | 4.0833e-05 | deg |
M | 213.2962414053831 | 1.3212e-05 | deg |
tp | 2459754.888717084727 (2022-Jun-24.38871708) | 5.1023e-05 | TDB |
period | 1360.428253934491 3.72 | 7.8636e-06 2.153e-08 | d yr |
n | .2646225546689765 | 1.5296e-09 | deg/d |
Q | 2.735378499253747 | 1.0541e-08 | au |
|
| | Orbit Determination Parameters
Additional Information
|